This is the latest recevied weather packets stored in our database for station/object KB2EAR-13. If no packets are shown the sender has not sent any weather packets the latest 10 day(s).
| Time | Temp. | Humidity | Pressure | Rain* | Wind** | Luminosity | Snow |
|---|---|---|---|---|---|---|---|
| 1778181481 | 17.22° C | 40% | 1009 hPa | 0 mm | - | - | - |
| 1778181481 | 17.22° C | 39% | 1009.1 hPa | 0 mm | - | - | - |
| 1778181317 | 17.22° C | 40% | 1009 hPa | 0 mm | - | - | - |
| 1778181017 | 17.22° C | 39% | 1009.1 hPa | 0 mm | - | - | - |
| 1778180717 | 17.22° C | 40% | 1009.1 hPa | 0 mm | - | - | - |
| 1778180418 | 17.22° C | 41% | 1009.2 hPa | 0 mm | - | - | - |
| 1778180118 | 17.22° C | 41% | 1009.3 hPa | 0 mm | - | - | - |
| 1778179818 | 17.22° C | 41% | 1009.4 hPa | 0 mm | - | - | - |
| 1778179518 | 17.22° C | 42% | 1009.5 hPa | 0 mm | - | - | - |
| 1778179217 | 17.22° C | 43% | 1009.6 hPa | 0 mm | - | - | - |
| 1778178918 | 17.22° C | 42% | 1009.7 hPa | 0 mm | - | - | - |
| 1778178617 | 17.22° C | 41% | 1009.7 hPa | 0 mm | - | - | - |
| 1778178317 | 17.22° C | 40% | 1009.9 hPa | 0 mm | - | - | - |
| 1778178018 | 17.22° C | 42% | 1009.8 hPa | 0 mm | - | - | - |
| 1778177717 | 17.22° C | 39% | 1009.8 hPa | 0 mm | - | - | - |
| 1778177417 | 16.67° C | 43% | 1009.7 hPa | 0 mm | - | - | - |
| 1778177117 | 16.67° C | 42% | 1009.9 hPa | 0 mm | - | - | - |
| 1778176818 | 16.67° C | 40% | 1010.1 hPa | 0 mm | - | - | - |
| 1778176679 | 16.67° C | 42% | 1010.1 hPa | 0 mm | - | - | - |
| 1778176517 | 16.67° C | 42% | 1010.1 hPa | 0 mm | - | - | - |
| 1778176217 | 16.67° C | 43% | 1010.2 hPa | 0 mm | - | - | - |
| 1778175917 | 16.67° C | 42% | 1010.2 hPa | 0 mm | - | - | - |
| 1778175617 | 16.67° C | 43% | 1010.3 hPa | 0 mm | - | - | - |
| 1778175317 | 16.67° C | 41% | 1010.4 hPa | 0 mm | - | - | - |
| 1778175017 | 16.67° C | 43% | 1010.5 hPa | 0 mm | - | - | - |
* Rain latest hour (hover to see other rain measurements)
** Current wind speed in m/s (hover to see current wind gust speed)